TimeMST,TemperatureF,Dew PointF,Humidity,Sea Level PressureIn,VisibilityMPH,Wind Direction,Wind SpeedMPH,Gust SpeedMPH,PrecipitationIn,Events,Conditions,WindDirDegrees,DateUTC
12:54 AM,35.1,18.0,50,29.55,10.0,Calm,Calm,-,N/A,,Overcast,0,2013-01-29 07:54:00
1:54 AM,35.1,17.1,48,29.53,10.0,SSW,5.8,-,N/A,,Mostly Cloudy,200,2013-01-29 08:54:00
2:54 AM,37.9,7.0,28,29.53,10.0,South,12.7,18.4,N/A,,Mostly Cloudy,190,2013-01-29 09:54:00
3:54 AM,37.0,5.0,26,29.52,10.0,SSW,17.3,25.3,N/A,,Mostly Cloudy,200,2013-01-29 10:54:00
4:54 AM,34.0,6.1,31,29.51,10.0,SW,11.5,-,N/A,,Scattered Clouds,230,2013-01-29 11:54:00
5:35 AM,24.8,23.0,93,29.60,7.0,NNE,12.7,-,N/A,,Scattered Clouds,20,2013-01-29 12:35:00
5:44 AM,26.6,24.8,93,29.59,9.0,NNE,11.5,-,N/A,,Mostly Cloudy,30,2013-01-29 12:44:00
5:54 AM,26.1,23.0,88,29.56,10.0,NNE,12.7,-,N/A,,Scattered Clouds,30,2013-01-29 12:54:00
6:41 AM,26.6,24.8,93,29.60,10.0,NNE,9.2,-,N/A,,Mostly Cloudy,20,2013-01-29 13:41:00
6:54 AM,27.0,24.1,89,29.59,10.0,NE,9.2,-,N/A,,Overcast,40,2013-01-29 13:54:00
7:54 AM,28.0,24.1,85,29.62,10.0,NNE,9.2,-,N/A,,Overcast,30,2013-01-29 14:54:00
8:25 AM,26.6,24.8,93,29.62,3.0,NE,6.9,-,N/A,,Overcast,50,2013-01-29 15:25:00
8:40 AM,28.4,24.8,86,29.63,1.8,ENE,6.9,-,0.00,Snow,Light Snow,60,2013-01-29 15:40:00
8:54 AM,27.0,25.0,92,29.63,2.0,ENE,9.2,-,0.00,Snow,Light Snow,70,2013-01-29 15:54:00
9:34 AM,26.6,24.8,93,29.62,1.2,ENE,13.8,-,0.00,Snow,Light Snow,60,2013-01-29 16:34:00
9:44 AM,26.6,24.8,93,29.62,0.5,NE,13.8,-,0.00,Fog-Snow,Snow,50,2013-01-29 16:44:00
9:54 AM,27.0,24.1,89,29.62,0.8,ENE,15.0,-,0.00,Snow,Light Snow,60,2013-01-29 16:54:00
9:59 AM,26.6,24.8,93,29.62,1.0,NE,12.7,-,0.00,Snow,Light Snow,50,2013-01-29 16:59:00
10:07 AM,26.6,24.8,93,29.61,1.2,NE,12.7,-,0.00,Snow,Light Snow,50,2013-01-29 17:07:00
10:18 AM,26.6,24.8,93,29.62,1.5,NE,17.3,-,0.00,Snow,Light Snow,40,2013-01-29 17:18:00
10:52 AM,26.6,23.0,86,29.61,0.5,NE,17.3,26.5,0.00,Fog-Snow,Snow,50,2013-01-29 17:52:00
10:54 AM,26.1,23.0,88,29.62,0.5,NE,17.3,26.5,0.00,Fog-Snow,Snow,50,2013-01-29 17:54:00
11:04 AM,24.8,21.2,86,29.62,0.2,NNE,20.7,28.8,0.00,Fog-Snow,Heavy Snow,20,2013-01-29 18:04:00
11:13 AM,24.8,21.2,86,29.61,0.2,NNE,21.9,29.9,0.00,Fog-Snow,Heavy Snow,30,2013-01-29 18:13:00
11:30 AM,24.8,19.4,80,29.62,0.5,North,20.7,26.5,0.00,Fog-Snow,Snow,10,2013-01-29 18:30:00
11:41 AM,23.0,19.4,86,29.62,1.0,NNE,23.0,31.1,0.00,Snow,Light Snow,20,2013-01-29 18:41:00
11:54 AM,23.0,19.0,85,29.65,1.5,NNE,19.6,31.1,0.00,Snow,Light Snow,20,2013-01-29 18:54:00
12:04 PM,23.0,19.4,86,29.62,1.8,NNE,23.0,28.8,0.00,Snow,Light Snow,20,2013-01-29 19:04:00
12:12 PM,23.0,17.6,80,29.63,2.5,NNE,17.3,33.4,0.00,Snow,Light Snow,20,2013-01-29 19:12:00
12:19 PM,23.0,17.6,80,29.63,2.0,North,16.1,-,0.00,Snow,Light Snow,10,2013-01-29 19:19:00
12:47 PM,23.0,17.6,80,29.63,6.0,NNE,13.8,-,0.00,Snow,Light Snow,20,2013-01-29 19:47:00
12:54 PM,23.0,18.0,81,29.67,4.0,North,12.7,-,0.00,Snow,Light Snow,10,2013-01-29 19:54:00
12:59 PM,23.0,17.6,80,29.64,2.5,North,13.8,-,0.00,Snow,Light Snow,10,2013-01-29 19:59:00
1:05 PM,23.0,17.6,80,29.64,3.0,NNE,12.7,-,0.00,Snow,Light Snow,20,2013-01-29 20:05:00
1:12 PM,23.0,17.6,80,29.64,1.8,NNE,12.7,-,0.00,Snow,Light Snow,30,2013-01-29 20:12:00
1:54 PM,23.0,19.0,85,29.68,0.5,NE,10.4,-,0.00,Fog-Snow,Snow,40,2013-01-29 20:54:00
2:13 PM,23.0,19.4,86,29.65,0.8,NE,9.2,-,0.00,Snow,Light Snow,50,2013-01-29 21:13:00
2:54 PM,23.0,19.0,85,29.68,0.5,NNE,5.8,-,0.00,Fog-Snow,Light Snow,30,2013-01-29 21:54:00
3:07 PM,23.0,17.6,80,29.67,1.0,North,12.7,-,0.00,Snow,Light Snow,10,2013-01-29 22:07:00
3:36 PM,23.0,15.8,74,29.68,3.0,NNE,13.8,19.6,0.00,Snow,Light Snow,20,2013-01-29 22:36:00
3:47 PM,23.0,17.6,80,29.69,5.0,North,9.2,-,0.00,,Haze,10,2013-01-29 22:47:00
3:54 PM,21.9,17.1,82,29.72,4.0,North,12.7,-,0.00,Snow,Light Snow,10,2013-01-29 22:54:00
4:54 PM,21.9,17.1,82,29.75,10.0,WNW,5.8,-,0.00,,Mostly Cloudy,290,2013-01-29 23:54:00
5:54 PM,19.0,15.1,85,29.83,10.0,West,8.1,-,N/A,,Clear,270,2013-01-30 00:54:00
6:54 PM,16.0,12.0,84,29.86,10.0,WNW,6.9,-,N/A,,Mostly Cloudy,290,2013-01-30 01:54:00
7:54 PM,14.0,10.0,84,29.90,10.0,NW,3.5,-,N/A,,Overcast,310,2013-01-30 02:54:00
8:54 PM,12.9,8.1,81,29.94,10.0,WNW,8.1,-,N/A,,Overcast,300,2013-01-30 03:54:00
9:54 PM,15.1,9.0,77,29.96,10.0,NNW,6.9,-,N/A,,Mostly Cloudy,330,2013-01-30 04:54:00
10:54 PM,18.0,12.9,81,29.98,10.0,NW,6.9,-,N/A,,Overcast,310,2013-01-30 05:54:00
11:54 PM,19.9,15.1,81,30.00,10.0,NW,6.9,-,N/A,,Overcast,310,2013-01-30 06:54:00